Showing default

NUSAT-53 (JANE GOODALL), 68432

Orbit data source: Space-Track

NUSAT-53 (JANE GOODALL), 68432 is a payload satellite owned by URUGUS S.A. (AR) in SSO that was launched on Mon, 30 Mar 2026 UTC via an FALCON 9 launch vehicle from the Air Force Western Test Range (AFWTR). Payload-class satellites include a variety of spacecraft equipped with specific instruments for various scientific and technological missions. These include communications satellites like Starlink; space stations such as the ISS; scientific satellites like the Hubble; Earth observation satellites from companies like Planet Labs, Umbra, and HawkEye 360; GPS; miniature CubeSats for education and research; and military/defense satellites.

Loading next visibility...
Identifier
68432, 2026-067S
Orbit
SSO
Country
Flag of ARAR / ARGN
Related business
Manufacturer
URUGUS S.A.
Mission
Operational Commercial Imaging
Bus & Motor
NEWSAT V, Unknown motor
Mass
41.5 kg wet, 38.5 kg dry
Launch date (UTC)
2026-03-30 (4 months ago)
Launch vehicle
FALCON 9
Launch site
Air Force Western Test Range (AFWTR)
Object type
Payload
Rocket body
Debris
Shape & HBR
Box, 1.0 m
Radar Cross Section
0.542 m², Medium (>0.1 m² and < 1m²)

Expand to show TLE details & history
Last TLE update: 13 hours ago

TLE from 13 hours ago
0 NUSAT-53 (JANE GOODALL)
1 68432U 26067S   26219.85170254  .00002725  00000-0  13342-3 0  9998
2 68432  97.4589 177.6674 0002585 151.6167 208.5208 15.19022448 19788
Epoch: 2026-08-07T20:26Z
TLE epoch observation values (Epoch: 2026-08-07T20:26:27.099Z)
Latitude
-0.00009°
Longitude
-85.31696°
Altitude
513.446 km
Speed
7.606 km/s
True Right ascension
11h 50m 40s
True Declination
0° 00' 00"
Sunlit
Object was in daylight at epoch
Visualization orbit readout
Latitude
Unknown
Longitude
Unknown
Altitude
Unknown
Speed
Unknown
Apparent Right ascension
Unknown
Apparent Declination
Unknown
Sunlit
N/A
Visualization observer readout
Local Sidereal Time
23:47:08
Azimuth
Unknown
Elevation
Unknown
Doppler factor
Unknown
Orbital elements
Apogee altitude
507.543 km
Perigee altitude
503.984 km
Semi-major axis
6,883.9 km
Eccentricity
0.00026
Inclination
97.4589°
RAAN
177.6674°
Arg. of periapsis
151.6167°
True anomaly
208.50666°
Mean anomaly
208.5208°
Eccentric anomaly
208.51373°
Mean motion
3.80007 °/min
Orbital period
94.74 mins
BSTAR
0.00013342
Loading maneuver chart data...
Computing Atmospheric mass density...
Loading historical data...
Loading historical data...
Loading historical data...
Loading historical data...
Loading historical data...
Loading historical data...
Loading historical data...

Documentation

Showing up to 5 results
|